Find Starlink 34861

NORAD ID: 66368 Int'l Des: 2025-254 Owner: SPXS Country: US Constellation: starlink operational
LEOCIRCULAR

現在のビュー

3D地球を読み込み中...

Starlink 34861について

説明を読み込み中...

次回通過

Passes for default location (London). Set your location on the main map for personalized predictions.

高度履歴

Loading altitude history...

軌道要素

1 66368U 25254W 26146.52007861 .00011222 00000-0 39042-3 0 9994
2 66368 53.1566 228.6371 0000987 52.8573 307.2518 15.30202252 30922
Epoch: May 26, 2026 • Age: 8 hours

現在のステータス

高度 491.3 km
速度 7.62 km/s
衛星直下点 -46.49°S, 9.51°W
打ち上げ日 Nov 6, 2025
運用期間 0.5 years
タイプ internet

技術仕様

分類 Payload
質量 575.00 kg
乾燥質量 530.00 kg
総質量 575.00 kg
長さ 0.30 m
直径 4.10 m
スパン 29.00 m
形状 Box + pan
製造者 SPXS
バスタイプ Starlink V2MO
フェーズステータス In Orbit
所有者/国 SPXS/US

Most Searched